SCP
0 0 0 0 0 0 0 0 0 0 0 0 0 0 0 0 0 0 0 0 0 0 0 0 0 0 0 0 0 0 0 0 0 0 0 0 0 0 0 0 0 0 0 0
0 0 0 0 0 0 0 0 0 0 0 0 0 0 0 0 0 0 0 0 0 0 0 0 0 0 0 0 0 0 0 0 0 0 0 0 0 0 0 0 0 0 0 0
0 0 0 0 0 0 0 0 0 0 0 0 0 0 0 0 0 0 0 0 0 0 0 0 0 0 0 0 0 0 0 0 0 0 0 0 0 0 0 0 0 0 0 0
0 0 0 0 0 0 0 0 0 0 0 0 0 0 0 0 0 0 0 0 0 0 0 0 0 0 0 0 0 0 0 0 0 0 0 0 0 0 0 0 0 0 0 0
0 0 0 0 0 0 0 0 0 0 0 0 0 0 0 0 0 0 0 0 0 0 0 0 0 0 0 0 0 0 0 0 0 0 0 0 0 0 0 0 0 0 0 0
0 0 0 -0 0 0 0 0 0 0 0 0 0 0 0 0 0 0 0 0 0 0 0 0 0 0 0 0 0 0 0 0 0 0 0 0 0 0 0 0 0 0 0 0
0 0 0 0 0 0 0 0 0 0 0 0 0 0 0 0 0 0 0 0 0 0 0 0 0 0 0 0 0 0 0 0 0 0 0 0 0 0 0 0 0 0 0 0
0 0 0 0 0 0 0 0 0 0 0 0 0 0 0 0 0 0 0 0 0 0 0 0 0 0 0 0 0 0 0 0 0 0 0 0 0 0 0 0 0 0 0 0
0 0 0 0 0 0 0 0 0 0 0 0 0 0 0 0 0 0 0 0 0 0 0 0 0 0 0 0 0 0 0 0 0 0 0 0 0 0 0 0 0 0 0 0
0 0 0 0 0 0 0 0 0 0 0 0 0 0 0 0 0 0 0 0 0 0 0 0 0 0 0 0 0 0 0 0 0 0 0 0 0 0 0 0 0 0 0 0
0 0 0 0 0 0 0 0 0 0 0 0 0 0 0 0 0 0 0 0 0 0 0 0 0 0 0 0 0 0 0 0 0 0 0 0 0 0 0 0 0 0 0 0
0 0 0 0 0 0 0 0 0 0 0 0 0 0 0 0 0 0 0 0 0 0 0 0 0 0 0 0 0 0 0 0 0 0 0 0 0 0 0 0 0 0 0 0
0 0 0 0 0 0 0 0 0 0 0 0 0 0 0 0 0 0 0 0 0 0 0 0 0 0 0 0 0 0 0 0 0 0 0 0 0 0 0 0 0 0 0 0
0 0 0 0 0 0 0 0 0 0 0 0 0 0 0 0 0 0 0 0 0 0 0 0 0 0 0 0 0 0 0 0 0 0 0 0 0 0 0 0 0 0 0 0
0 0 0 0 0 0 -0 -0 0 0 0 0 0 0 0 0 0 0 0 0 0 0 0 0 0 0 0 0 0 0 0 0 0 0 0 0 0 0 0 0 0 0 0 0
0 0 0 0 0 0 0 -0 -0 0 0 0 0 0 0 0 0 0 0 0 0 0 0 0 0 0 0 0 0 0 0 0 0 0 0 0 0 0 0 0 0 0 0 0
0 0 0 0 0 0 0 0 0 0 0 0 0 0 0 0 0 0 0 0 0 0 0 0 0 0 0 0 0 0 0 0 0 0 0 0 0 0 0 0 0 0 0 0
0 0 0 0 0 0 0 0 0 0 0 0 0 0 0 0 0 0 0 0 0 0 0 0 0 0 0 0 0 0 0 0 0 0 0 0 0 0 0 0 0 0 0 0
0 0 0 0 0 0 0 0 0 0 0 0 0 0 0 0 0 0 0 0 0 0 0 0 0 0 0 0 0 0 0 0 0 0 0 0 0 0 0 0 0 0 0 0
-0 0 0 0 0 0 0 0 0 0 0 0 0 0 0 0 0 0 0 0 0 0 0 0 0 0 0 0 0 0 0 0 0 0 0 0 0 0 0 0 0 0 0 0
0 0 0 0 0 0 0 0 0 0 0 0 0 0 0 0 0 0 0 0 0 0 0 0 0 0 0 0 0 0 0 0 0 0 0 0 0 0 0 0 0 0 0 0
0 0 0 0 0 0 0 0 0 0 0 0 0 0 0 0 0 0 0 0 0 0 0 0 0 0 0 0 0 0 0 0 0 0 0 0 0 0 0 0 0 0 0 0
0 0 0 0 0 0 0 0 0 0 0 0 0 0 0 0 0 0 0 0 0 0 0 0 0 0 0 0 0 0 0 0 0 0 0 0 0 0 0 0 0 0 0 0
0 0 0 0 0 0 0 0 0 0 0 0 0 0 0 0 0 0 0 0 0 0 0 0 0 0 0 0 0 0 0 0 0 0 0 0 0 0 0 0 0 0 0 0
0 0 0 0 0 0 0 0 0 0 0 0 0 0 0 0 0 0 0 0 0 0 0 0 0 0 0 0 0 0 0 0 0 0 0 0 0 0 0 0 0 0 0 0
0 0 0 0 0 0 0 0 0 0 0 0 0 0 0 0 0 0 0 0 0 0 0 0 0 0 0 0 0 0 0 0 0 0 0 0 0 0 0 0 0 0 0 0
0 0 -0 -0 0 0 0 0 0 0 0 0 0 0 0 0 0 0 0 0 0 0 0 0 0 0 0 0 0 0 0 0 0 0 0 0 0 0 0 0 0 0 0 0
Wind_Speed_500mb
20 14 13 9 4 15 26 21 5 24 25 4 6 7 13 9 12 9 8 7 8 4 4 15 18 23 7 24 33 34 14 11 9 13 2 3 2 13 12 10 10 5 7 6
25 21 19 18 9 6 21 16 9 35 24 7 6 7 11 15 14 12 12 5 4 5 6 6 19 12 1 10 18 29 18 7 7 8 6 3 7 7 8 9 6 15 13 10
32 30 25 20 23 12 20 9 6 7 13 6 8 12 12 9 9 11 17 9 12 8 8 9 5 8 3 4 5 12 24 6 20 30 10 17 12 12 11 14 10 8 16 19
35 37 32 26 30 24 21 7 6 5 9 8 5 12 17 17 12 7 22 10 15 11 11 10 10 5 7 9 6 9 7 13 5 6 9 6 10 18 23 32 33 27 18 16
36 37 35 36 30 37 30 10 6 5 1 21 11 11 18 25 9 14 10 7 24 21 9 10 10 13 4 5 6 6 7 5 5 5 8 8 4 6 14 10 6 1 3 10
29 22 47 40 44 49 31 33 11 4 2 6 17 12 7 18 15 1 12 22 16 23 26 11 6 10 21 14 13 7 10 9 6 11 11 9 9 19 13 8 6 12 19 11
24 40 16 50 45 59 56 29 23 10 5 6 13 15 15 12 17 12 8 19 14 18 28 26 19 28 22 8 8 14 13 10 4 6 7 7 11 2 25 30 15 20 9 9
35 29 46 40 57 55 62 57 31 21 5 8 7 11 10 17 5 6 9 8 14 53 26 6 6 4 4 4 8 5 2 9 6 9 7 8 6 11 17 22 24 12 20 14
43 42 34 45 46 56 61 63 62 19 9 15 30 13 17 9 9 4 3 8 54 38 6 5 10 9 7 8 3 6 4 5 8 6 10 16 11 4 19 11 9 22 28 27
39 46 43 38 44 55 64 61 66 48 9 10 45 13 17 20 9 8 8 16 12 13 5 5 6 7 3 10 15 10 8 6 9 7 4 14 13 6 17 16 11 37 43 42
40 39 47 45 45 48 28 67 69 59 23 17 38 40 28 22 29 11 16 13 6 4 6 7 7 6 10 6 7 11 11 12 7 5 7 16 17 8 17 11 37 39 35 37
42 44 41 47 51 53 28 29 74 61 37 17 42 48 44 46 57 41 44 5 10 16 6 1 6 3 3 6 6 4 5 10 10 13 9 2 18 16 43 41 44 29 33 30
42 43 46 44 49 52 46 25 56 69 50 32 38 43 46 49 41 53 26 12 16 19 13 12 4 6 7 7 8 4 6 6 6 8 5 4 33 33 31 32 33 29 26 23
43 43 44 51 45 49 52 52 35 76 32 10 17 65 57 48 42 44 50 37 32 29 19 8 5 5 8 5 5 6 8 19 11 3 1 17 13 28 37 40 35 32 26 16
50 44 46 48 51 46 45 49 50 54 62 14 16 45 55 56 51 50 52 42 50 31 10 5 5 8 7 4 5 4 13 11 10 8 30 12 26 38 36 35 28 19 13 9
51 51 48 50 49 44 44 27 62 54 52 17 7 18 41 55 53 56 49 51 46 30 18 7 8 11 10 7 7 9 14 17 24 16 28 30 44 38 30 21 15 10 10 12
55 54 53 53 53 55 50 13 17 31 66 18 6 3 22 57 53 43 45 44 26 14 13 6 11 8 14 5 8 10 21 24 32 42 41 30 35 18 19 13 11 12 14 17
59 57 54 54 52 51 62 73 26 47 66 18 10 5 14 56 19 11 21 16 15 9 11 10 8 10 6 5 9 36 35 35 33 32 19 15 24 21 20 19 19 19 21 23
59 58 54 51 60 57 62 63 67 54 40 14 10 17 9 38 17 15 9 12 5 11 4 7 15 3 10 12 35 53 55 40 32 29 24 23 26 27 27 25 24 23 24 26
63 57 43 27 61 63 37 35 30 42 37 17 6 21 9 41 13 7 11 9 6 5 6 23 5 8 18 20 42 54 49 45 38 38 33 36 35 33 28 25 24 26 29 30
67 44 37 32 32 51 30 21 21 13 12 23 17 30 19 27 11 8 10 6 5 7 7 11 5 8 17 53 51 51 51 48 44 40 30 34 31 32 29 27 26 25 23 21
67 52 47 41 31 19 17 15 12 9 13 14 22 22 35 25 23 9 7 6 4 11 15 8 6 10 33 69 67 64 59 52 45 39 35 31 29 28 27 24 21 20 19 19
77 35 26 19 13 22 20 19 7 9 7 21 37 20 20 15 15 8 7 9 8 28 6 9 11 10 46 69 74 65 57 50 44 38 35 30 26 23 20 17 16 16 14 14
16 10 15 11 11 9 4 10 14 15 29 63 71 16 10 13 6 7 11 6 11 6 7 14 7 44 61 67 71 68 61 50 44 40 36 30 25 18 13 11 10 11 12 14
16 7 10 6 5 3 21 10 12 26 65 76 30 19 15 5 10 6 10 8 9 12 13 9 22 58 75 74 68 59 55 51 44 37 32 26 21 18 15 12 9 8 11 15
12 18 8 8 2 6 13 8 4 43 69 49 19 9 8 4 13 10 11 21 13 10 8 13 46 65 73 72 65 57 50 44 41 36 30 25 21 18 14 9 6 9 11 12
10 6 15 7 1 5 12 11 1 12 54 12 7 10 8 10 7 6 9 13 7 8 20 40 52 70 71 65 61 56 51 45 39 34 31 26 22 17 14 12 10 9 10 11
Wind_Direction_500mb
227 217 237 267 320 187 165 159 132 162 160 124 151 127 158 176 170 110 94 66 80 114 92 181 202 206 235 194 156 193 185 130 167 191 293 330 289 214 156 159 219 212 152 249
222 226 226 249 262 187 167 139 116 172 188 186 167 159 155 183 147 165 144 141 88 100 105 266 195 177 325 170 178 171 175 191 119 1 331 1 219 208 152 110 68 197 162 202
226 222 217 226 239 221 179 152 135 165 226 192 162 151 172 154 142 148 150 145 145 143 181 230 251 169 157 115 117 108 158 120 204 215 200 136 193 194 196 175 196 162 215 146
231 226 223 219 219 226 195 201 214 183 189 205 181 159 168 174 159 150 155 158 171 159 197 191 205 299 136 68 119 61 96 160 121 113 134 98 166 178 182 204 211 204 188 172
216 217 227 221 201 223 217 192 184 154 116 165 182 182 199 187 169 152 186 181 178 171 188 203 178 147 261 134 53 83 6 103 109 127 90 76 164 180 198 189 149 236 212 249
239 221 215 219 210 211 212 216 214 197 173 146 192 189 186 197 139 245 190 180 165 200 211 195 240 161 150 173 150 124 127 134 148 172 129 98 311 206 192 195 194 179 218 184
255 246 238 211 211 211 219 222 200 174 237 179 204 184 181 196 197 174 183 193 145 151 152 129 103 70 60 89 65 133 146 107 81 118 104 197 246 206 181 191 206 206 96 140
245 255 247 231 215 217 222 221 198 210 205 177 180 178 186 201 111 84 159 174 164 151 135 94 96 14 57 33 35 49 192 131 134 166 182 302 299 210 165 172 225 176 146 145
247 242 254 247 234 218 220 224 214 194 143 230 181 177 183 163 161 79 241 174 160 162 100 107 169 193 139 210 171 7 51 69 115 155 157 200 227 286 152 112 279 170 150 152
246 243 241 251 236 223 218 217 223 219 211 215 193 172 184 180 139 137 138 148 179 168 129 125 163 227 182 173 171 163 135 98 164 162 192 285 245 165 151 165 235 147 148 151
242 240 239 244 244 223 225 212 219 211 215 209 207 205 185 158 181 152 156 124 201 83 123 145 192 147 214 106 195 176 154 145 175 99 91 263 196 127 161 143 128 143 145 148
244 238 241 240 249 240 241 227 210 216 211 214 208 218 222 226 212 186 169 186 154 151 115 82 101 146 75 137 213 280 221 177 171 179 212 336 167 135 133 138 142 145 143 144
246 244 238 240 240 247 245 226 197 200 204 222 217 223 215 219 220 219 168 194 169 170 137 151 158 154 120 154 233 113 272 162 149 96 283 110 123 121 124 134 130 136 147 159
244 247 243 236 238 237 250 246 241 196 185 201 204 212 212 214 213 211 214 212 179 164 158 102 126 146 174 198 165 149 193 150 150 79 348 91 91 131 140 139 145 152 156 174
238 243 245 240 235 237 243 249 248 215 191 156 167 194 202 202 208 213 209 198 181 163 119 103 200 142 109 357 53 263 183 170 166 201 178 136 153 146 148 150 152 160 183 216
236 239 239 237 234 230 238 235 249 252 204 154 152 183 179 185 187 191 183 185 175 166 159 183 158 152 154 137 189 247 191 169 155 147 149 152 153 157 164 172 175 208 240 263
236 236 236 235 228 223 222 201 219 219 198 152 103 116 165 174 174 169 164 172 167 163 128 132 137 132 158 103 191 188 174 155 146 151 142 134 159 173 183 201 223 249 260 276
234 233 232 229 225 229 232 224 237 194 193 174 138 146 147 165 142 124 146 136 137 124 123 136 130 122 98 248 208 165 153 147 147 160 182 177 180 193 212 221 226 241 259 273
233 230 226 226 222 224 227 236 236 231 204 164 166 154 163 166 121 123 119 115 106 139 126 184 150 173 212 217 164 173 173 171 183 186 193 200 205 209 216 224 237 251 261 270
226 219 213 212 213 218 219 227 204 213 207 177 152 142 151 165 130 118 109 102 127 136 221 135 135 247 220 183 186 185 192 205 203 183 184 197 207 209 214 227 238 252 264 272
220 201 197 204 199 190 203 217 199 166 160 162 162 160 135 165 135 122 113 144 142 142 217 142 200 263 199 189 189 191 193 196 200 210 212 207 213 212 221 236 246 253 259 266
203 184 179 184 183 191 223 193 164 181 157 144 152 148 129 130 129 105 157 118 98 188 144 110 242 238 186 189 187 189 192 195 198 199 204 207 210 214 216 218 223 237 257 270
171 168 157 158 205 216 218 157 136 137 148 138 146 142 128 125 105 96 135 144 175 124 88 207 225 180 181 185 186 186 188 191 194 199 206 208 207 205 202 211 227 242 250 264
123 125 141 184 169 261 234 165 139 160 160 155 152 130 127 127 115 134 123 133 137 77 169 229 223 191 183 184 186 188 186 190 194 195 194 194 192 195 206 216 235 257 278 291
74 75 147 172 334 243 293 307 136 146 157 149 134 76 98 120 117 102 120 131 167 186 217 227 178 181 180 179 180 180 181 179 179 182 183 186 188 191 201 211 229 262 290 304
60 47 102 18 260 27 294 274 35 139 158 148 97 99 123 134 124 134 185 144 193 225 204 163 164 172 177 171 170 170 169 169 170 172 177 182 185 189 199 217 250 276 286 291
50 51 60 85 150 328 285 266 69 152 155 159 113 104 156 116 112 165 179 192 203 175 142 155 171 170 166 164 162 162 163 165 168 171 173 177 182 186 192 206 225 243 261 274
Wind_Speed_850mb
20 14 13 9 4 15 26 21 5 24 25 4 6 7 13 9 12 9 8 7 8 4 4 15 18 23 7 24 33 34 14 11 9 13 2 3 2 13 12 10 10 5 7 6
25 21 19 18 9 6 21 16 9 35 24 7 6 7 11 15 14 12 12 5 4 5 6 6 19 12 1 10 18 29 18 7 7 8 6 3 7 7 8 9 6 15 13 10
32 30 25 20 23 12 20 9 6 7 13 6 8 12 12 9 9 11 17 9 12 8 8 9 5 8 3 4 5 12 24 6 20 30 10 17 12 12 11 14 10 8 16 19
35 37 32 26 30 24 21 7 6 5 9 8 5 12 17 17 12 7 22 10 15 11 11 10 10 5 7 9 6 9 7 13 5 6 9 6 10 18 23 32 33 27 18 16
36 37 35 36 30 37 30 10 6 5 1 21 11 11 18 25 9 14 10 7 24 21 9 10 10 13 4 5 6 6 7 5 5 5 8 8 4 6 14 10 6 1 3 10
29 22 47 40 44 49 31 33 11 4 2 6 17 12 7 18 15 1 12 22 16 23 26 11 6 10 21 14 13 7 10 9 6 11 11 9 9 19 13 8 6 12 19 11
24 40 16 50 45 59 56 29 23 10 5 6 13 15 15 12 17 12 8 19 14 18 28 26 19 28 22 8 8 14 13 10 4 6 7 7 11 2 25 30 15 20 9 9
35 29 46 40 57 55 62 57 31 21 5 8 7 11 10 17 5 6 9 8 14 53 26 6 6 4 4 4 8 5 2 9 6 9 7 8 6 11 17 22 24 12 20 14
43 42 34 45 46 56 61 63 62 19 9 15 30 13 17 9 9 4 3 8 54 38 6 5 10 9 7 8 3 6 4 5 8 6 10 16 11 4 19 11 9 22 28 27
39 46 43 38 44 55 64 61 66 48 9 10 45 13 17 20 9 8 8 16 12 13 5 5 6 7 3 10 15 10 8 6 9 7 4 14 13 6 17 16 11 37 43 42
40 39 47 45 45 48 28 67 69 59 23 17 38 40 28 22 29 11 16 13 6 4 6 7 7 6 10 6 7 11 11 12 7 5 7 16 17 8 17 11 37 39 35 37
42 44 41 47 51 53 28 29 74 61 37 17 42 48 44 46 57 41 44 5 10 16 6 1 6 3 3 6 6 4 5 10 10 13 9 2 18 16 43 41 44 29 33 30
42 43 46 44 49 52 46 25 56 69 50 32 38 43 46 49 41 53 26 12 16 19 13 12 4 6 7 7 8 4 6 6 6 8 5 4 33 33 31 32 33 29 26 23
43 43 44 51 45 49 52 52 35 76 32 10 17 65 57 48 42 44 50 37 32 29 19 8 5 5 8 5 5 6 8 19 11 3 1 17 13 28 37 40 35 32 26 16
50 44 46 48 51 46 45 49 50 54 62 14 16 45 55 56 51 50 52 42 50 31 10 5 5 8 7 4 5 4 13 11 10 8 30 12 26 38 36 35 28 19 13 9
51 51 48 50 49 44 44 27 62 54 52 17 7 18 41 55 53 56 49 51 46 30 18 7 8 11 10 7 7 9 14 17 24 16 28 30 44 38 30 21 15 10 10 12
55 54 53 53 53 55 50 13 17 31 66 18 6 3 22 57 53 43 45 44 26 14 13 6 11 8 14 5 8 10 21 24 32 42 41 30 35 18 19 13 11 12 14 17
59 57 54 54 52 51 62 73 26 47 66 18 10 5 14 56 19 11 21 16 15 9 11 10 8 10 6 5 9 36 35 35 33 32 19 15 24 21 20 19 19 19 21 23
59 58 54 51 60 57 62 63 67 54 40 14 10 17 9 38 17 15 9 12 5 11 4 7 15 3 10 12 35 53 55 40 32 29 24 23 26 27 27 25 24 23 24 26
63 57 43 27 61 63 37 35 30 42 37 17 6 21 9 41 13 7 11 9 6 5 6 23 5 8 18 20 42 54 49 45 38 38 33 36 35 33 28 25 24 26 29 30
67 44 37 32 32 51 30 21 21 13 12 23 17 30 19 27 11 8 10 6 5 7 7 11 5 8 17 53 51 51 51 48 44 40 30 34 31 32 29 27 26 25 23 21
67 52 47 41 31 19 17 15 12 9 13 14 22 22 35 25 23 9 7 6 4 11 15 8 6 10 33 69 67 64 59 52 45 39 35 31 29 28 27 24 21 20 19 19
77 35 26 19 13 22 20 19 7 9 7 21 37 20 20 15 15 8 7 9 8 28 6 9 11 10 46 69 74 65 57 50 44 38 35 30 26 23 20 17 16 16 14 14
16 10 15 11 11 9 4 10 14 15 29 63 71 16 10 13 6 7 11 6 11 6 7 14 7 44 61 67 71 68 61 50 44 40 36 30 25 18 13 11 10 11 12 14
16 7 10 6 5 3 21 10 12 26 65 76 30 19 15 5 10 6 10 8 9 12 13 9 22 58 75 74 68 59 55 51 44 37 32 26 21 18 15 12 9 8 11 15
12 18 8 8 2 6 13 8 4 43 69 49 19 9 8 4 13 10 11 21 13 10 8 13 46 65 73 72 65 57 50 44 41 36 30 25 21 18 14 9 6 9 11 12
10 6 15 7 1 5 12 11 1 12 54 12 7 10 8 10 7 6 9 13 7 8 20 40 52 70 71 65 61 56 51 45 39 34 31 26 22 17 14 12 10 9 10 11
Wind_Direction_850mb
227 217 237 267 320 187 165 159 132 162 160 124 151 127 158 176 170 110 94 66 80 114 92 181 202 206 235 194 156 193 185 130 167 191 293 330 289 214 156 159 219 212 152 249
222 226 226 249 262 187 167 139 116 172 188 186 167 159 155 183 147 165 144 141 88 100 105 266 195 177 325 170 178 171 175 191 119 1 331 1 219 208 152 110 68 197 162 202
226 222 217 226 239 221 179 152 135 165 226 192 162 151 172 154 142 148 150 145 145 143 181 230 251 169 157 115 117 108 158 120 204 215 200 136 193 194 196 175 196 162 215 146
231 226 223 219 219 226 195 201 214 183 189 205 181 159 168 174 159 150 155 158 171 159 197 191 205 299 136 68 119 61 96 160 121 113 134 98 166 178 182 204 211 204 188 172
216 217 227 221 201 223 217 192 184 154 116 165 182 182 199 187 169 152 186 181 178 171 188 203 178 147 261 134 53 83 6 103 109 127 90 76 164 180 198 189 149 236 212 249
239 221 215 219 210 211 212 216 214 197 173 146 192 189 186 197 139 245 190 180 165 200 211 195 240 161 150 173 150 124 127 134 148 172 129 98 311 206 192 195 194 179 218 184
255 246 238 211 211 211 219 222 200 174 237 179 204 184 181 196 197 174 183 193 145 151 152 129 103 70 60 89 65 133 146 107 81 118 104 197 246 206 181 191 206 206 96 140
245 255 247 231 215 217 222 221 198 210 205 177 180 178 186 201 111 84 159 174 164 151 135 94 96 14 57 33 35 49 192 131 134 166 182 302 299 210 165 172 225 176 146 145
247 242 254 247 234 218 220 224 214 194 143 230 181 177 183 163 161 79 241 174 160 162 100 107 169 193 139 210 171 7 51 69 115 155 157 200 227 286 152 112 279 170 150 152
246 243 241 251 236 223 218 217 223 219 211 215 193 172 184 180 139 137 138 148 179 168 129 125 163 227 182 173 171 163 135 98 164 162 192 285 245 165 151 165 235 147 148 151
242 240 239 244 244 223 225 212 219 211 215 209 207 205 185 158 181 152 156 124 201 83 123 145 192 147 214 106 195 176 154 145 175 99 91 263 196 127 161 143 128 143 145 148
244 238 241 240 249 240 241 227 210 216 211 214 208 218 222 226 212 186 169 186 154 151 115 82 101 146 75 137 213 280 221 177 171 179 212 336 167 135 133 138 142 145 143 144
246 244 238 240 240 247 245 226 197 200 204 222 217 223 215 219 220 219 168 194 169 170 137 151 158 154 120 154 233 113 272 162 149 96 283 110 123 121 124 134 130 136 147 159
244 247 243 236 238 237 250 246 241 196 185 201 204 212 212 214 213 211 214 212 179 164 158 102 126 146 174 198 165 149 193 150 150 79 348 91 91 131 140 139 145 152 156 174
238 243 245 240 235 237 243 249 248 215 191 156 167 194 202 202 208 213 209 198 181 163 119 103 200 142 109 357 53 263 183 170 166 201 178 136 153 146 148 150 152 160 183 216
236 239 239 237 234 230 238 235 249 252 204 154 152 183 179 185 187 191 183 185 175 166 159 183 158 152 154 137 189 247 191 169 155 147 149 152 153 157 164 172 175 208 240 263
236 236 236 235 228 223 222 201 219 219 198 152 103 116 165 174 174 169 164 172 167 163 128 132 137 132 158 103 191 188 174 155 146 151 142 134 159 173 183 201 223 249 260 276
234 233 232 229 225 229 232 224 237 194 193 174 138 146 147 165 142 124 146 136 137 124 123 136 130 122 98 248 208 165 153 147 147 160 182 177 180 193 212 221 226 241 259 273
233 230 226 226 222 224 227 236 236 231 204 164 166 154 163 166 121 123 119 115 106 139 126 184 150 173 212 217 164 173 173 171 183 186 193 200 205 209 216 224 237 251 261 270
226 219 213 212 213 218 219 227 204 213 207 177 152 142 151 165 130 118 109 102 127 136 221 135 135 247 220 183 186 185 192 205 203 183 184 197 207 209 214 227 238 252 264 272
220 201 197 204 199 190 203 217 199 166 160 162 162 160 135 165 135 122 113 144 142 142 217 142 200 263 199 189 189 191 193 196 200 210 212 207 213 212 221 236 246 253 259 266
203 184 179 184 183 191 223 193 164 181 157 144 152 148 129 130 129 105 157 118 98 188 144 110 242 238 186 189 187 189 192 195 198 199 204 207 210 214 216 218 223 237 257 270
171 168 157 158 205 216 218 157 136 137 148 138 146 142 128 125 105 96 135 144 175 124 88 207 225 180 181 185 186 186 188 191 194 199 206 208 207 205 202 211 227 242 250 264
123 125 141 184 169 261 234 165 139 160 160 155 152 130 127 127 115 134 123 133 137 77 169 229 223 191 183 184 186 188 186 190 194 195 194 194 192 195 206 216 235 257 278 291
74 75 147 172 334 243 293 307 136 146 157 149 134 76 98 120 117 102 120 131 167 186 217 227 178 181 180 179 180 180 181 179 179 182 183 186 188 191 201 211 229 262 290 304
60 47 102 18 260 27 294 274 35 139 158 148 97 99 123 134 124 134 185 144 193 225 204 163 164 172 177 171 170 170 169 169 170 172 177 182 185 189 199 217 250 276 286 291
50 51 60 85 150 328 285 266 69 152 155 159 113 104 156 116 112 165 179 192 203 175 142 155 171 170 166 164 162 162 163 165 168 171 173 177 182 186 192 206 225 243 261 274